Location: Prairie State College
(41.5244°N, 87.6382°W)
Time: 07:18:01
(UTC-05:00)

Amateur Radio Satellites - All Passes

Search period start: 28 March 2015 06:48
Search period end: 29 March 2015 06:48
Location: Prairie State College, 41.5244°N, 87.6382°W

Satellite Date Start Highest point End Downlink Frequencies (MHz)
Time Altitude Azimuth
CUSAT 1 28 Mar 07:03:28 07:05:46 15° 73° (ENE) 07:08:37 437.405
VERMONT LUNAR 28 Mar 07:06:38 07:09:52 48° 165° (SSE) 07:13:08 437.305
RS-15 28 Mar 07:08:24 07:16:44 22° 257° (WSW) 07:24:34 29.354- 29.394
PHONESAT 2.4 28 Mar 07:34:46 07:38:05 40° 161° (SSE) 07:41:25 2401.200-2431.200
DANDE 28 Mar 07:42:49 07:46:04 25° 77° (ENE) 07:50:13 436.750
PRISM 28 Mar 07:56:57 07:59:01 13° 270° (W) 08:00:53 437.425
CUBESAT XI-V 28 Mar 08:08:40 08:09:51 11° 274° (W) 08:10:43 437.345
GONETS M04 28 Mar 08:14:16 08:22:23 42° 272° (W) 08:30:23
HO-68 28 Mar 08:14:39 08:18:44 16° 87° (E) 08:23:14 435.675
STRAND 1 28 Mar 08:18:39 08:22:06 17° 270° (W) 08:25:20 437.568
CANX-2 28 Mar 08:20:48 08:21:12 10° 87° (E) 08:21:52 2200.000
Cubesat XI-IV 28 Mar 08:22:36 08:27:06 27° 294° (WNW) 08:31:28 437.490
CUTE-I 28 Mar 08:22:51 08:27:20 28° 294° (WNW) 08:31:43 437.470
BRITE-PL 28 Mar 08:26:54 08:30:02 21° 94° (E) 08:33:21 437.365/2234.400
CUTE 1.7 + AOD 2 28 Mar 08:33:28 08:35:31 13° 89° (E) 08:37:47 437.475
VERMONT LUNAR 28 Mar 08:44:07 08:47:28 76° 183° (S) 08:50:51 437.305
CUSAT 1 28 Mar 08:44:31 08:48:34 52° 261° (W) 08:53:56 437.405
AAUSAT CUBESAT 2 28 Mar 09:02:55 09:05:37 17° 91° (E) 09:08:27 437.432
SEEDS 28 Mar 09:03:43 09:07:12 24° 94° (E) 09:10:45 437.485
CINEMA 3 28 Mar 09:07:03 09:09:10 14° 90° (E) 09:11:33 145.822/145.860
PHONESAT 2.4 28 Mar 09:12:45 09:16:17 76° 178° (S) 09:19:50 2401.200-2431.200
DOVE 4 28 Mar 09:15:48 09:19:38 31° 96° (E) 09:23:42 437.250
Oscar 11 28 Mar 09:18:44 09:20:15 12° 88° (E) 09:21:59 145.826/435.025
GOMX 1 28 Mar 09:20:08 09:24:17 52° 100° (E) 09:28:39 467.674
ANTELSAT 28 Mar 09:22:15 09:24:07 13° 64° (ENE) 09:26:11 437.575/2403.000
DANDE 28 Mar 09:25:57 09:29:19 25° 263° (W) 09:33:24 436.750
COMPASS 1 28 Mar 09:27:58 09:31:55 36° 97° (E) 09:35:52 437.405
CUBEBUG 2 28 Mar 09:28:43 09:30:30 12° 89° (E) 09:32:34 437.445
ZACube-1 28 Mar 09:39:33 09:40:06 10° 87° (E) 09:40:56 437.345
DUCHIFAT 1 28 Mar 09:41:34 09:41:38 10° 63° (ENE) 09:41:57 145.980
BEESAT 2 28 Mar 09:42:19 09:42:53 10° 109° (ESE) 09:43:43 435.950
QB50P2 28 Mar 09:51:05 09:53:10 14° 65° (ENE) 09:55:27 145.880/145.840
CANX-2 28 Mar 09:53:24 09:57:42 70° 285° (WNW) 10:01:59 2200.000
HO-68 28 Mar 10:00:15 10:07:30 87° 287° (WNW) 10:14:43 435.675
BRITE-PL 28 Mar 10:04:58 10:08:42 32° 289° (WNW) 10:12:30 437.365/2234.400
CUTE 1.7 + AOD 2 28 Mar 10:07:37 10:11:51 53° 286° (WNW) 10:16:02 437.475
UNISAT 6 28 Mar 10:15:52 10:19:57 47° 72° (ENE) 10:24:07 437.425
BEESAT 3 28 Mar 10:17:44 10:21:20 31° 115° (ESE) 10:25:01 437.485
POPSAT HIP 1 28 Mar 10:18:37 10:22:07 26° 69° (ENE) 10:25:41 437.405
VERMONT LUNAR 28 Mar 10:21:51 10:25:04 42° 198° (SSW) 10:28:16 437.305
UKube-1 28 Mar 10:23:12 10:26:33 22° 94° (E) 10:29:57 .
DELFI C3 28 Mar 10:25:14 10:29:15 50° 99° (E) 10:33:15 145.870
BUGSAT 1 28 Mar 10:25:25 10:28:37 22° 68° (ENE) 10:31:54 437.445
TIGRISAT 28 Mar 10:26:40 10:30:50 60° 75° (ENE) 10:35:05 435.000
NANOSAT C BR1 28 Mar 10:29:28 10:33:15 34° 71° (ENE) 10:37:06 145.865
DX 1 28 Mar 10:31:17 10:35:02 28° 96° (E) 10:38:49 434.975-435.025
POLYITAN 1 28 Mar 10:32:22 10:36:15 37° 71° (ENE) 10:40:10 437.675
AAUSAT CUBESAT 2 28 Mar 10:37:29 10:41:30 41° 288° (WNW) 10:45:27 437.432
HUMSAT D 28 Mar 10:38:58 10:42:23 24° 94° (E) 10:45:53 437.325/437.525
SEEDS 28 Mar 10:39:17 10:43:02 29° 290° (WNW) 10:46:42 437.485
CINEMA 3 28 Mar 10:42:28 10:46:45 56° 286° (WNW) 10:51:13 145.822/145.860
AIST 2 28 Mar 10:44:02 10:46:52 18° 111° (ESE) 10:49:51 435.215
PHONESAT 2.4 28 Mar 10:51:04 10:54:33 53° 194° (SSW) 10:58:01 2401.200-2431.200
Oscar 11 28 Mar 10:52:35 10:56:55 62° 285° (WNW) 11:01:13 145.826/435.025
DOVE 4 28 Mar 10:53:54 10:57:20 23° 291° (WNW) 11:00:48 437.250
ANTELSAT 28 Mar 10:56:15 11:00:27 60° 259° (W) 11:04:44 437.575/2403.000
GOMX 1 28 Mar 10:59:46 11:02:09 14° 294° (WNW) 11:04:23 467.674
FUNcube-1 28 Mar 11:00:16 11:04:39 82° 101° (E) 11:09:08 145.935
UWE-3 28 Mar 11:01:01 11:05:25 78° 284° (WNW) 11:09:55 435.000/436.395/437.385
CUBEBUG 2 28 Mar 11:03:18 11:07:38 61° 285° (WNW) 11:12:06 437.445
COMPASS 1 28 Mar 11:04:16 11:07:24 20° 293° (WNW) 11:10:26 437.405
VELOX 1 28 Mar 11:05:51 11:09:41 29° 95° (E) 11:13:33 145.980
AISAT 28 Mar 11:09:50 11:13:49 33° 97° (E) 11:17:49 437.250
QB50P1 28 Mar 11:10:04 11:14:18 82° 257° (WSW) 11:18:32 145.935-145.965
CUBEBUG 1 28 Mar 11:10:52 11:13:17 15° 90° (E) 11:15:54 437.445
ZACube-1 28 Mar 11:12:39 11:17:01 72° 284° (WNW) 11:21:28 437.345
DUCHIFAT 1 28 Mar 11:12:43 11:16:56 78° 258° (WSW) 11:21:10 145.980
BEESAT 2 28 Mar 11:16:24 11:20:30 74° 303° (WNW) 11:24:41 435.950
QB50P2 28 Mar 11:24:33 11:28:42 54° 260° (W) 11:32:52 145.880/145.840
ESTCUBE 1 28 Mar 11:34:55 11:38:57 32° 96° (E) 11:42:59 437.505/2401.250
50 SAT 28 Mar 11:39:49 11:43:52 78° 102° (ESE) 11:47:55 437.505
HO-68 28 Mar 11:49:39 11:54:22 18° 305° (NW) 11:58:48 435.675
POPSAT HIP 1 28 Mar 11:54:22 11:57:58 26° 265° (W) 12:01:31 437.405
UNISAT 6 28 Mar 11:54:34 11:57:06 15° 270° (W) 11:59:28 437.425
BEESAT 3 28 Mar 11:55:51 11:59:24 27° 313° (NW) 12:02:57 437.485
UKube-1 28 Mar 11:58:53 12:02:47 33° 290° (WNW) 12:06:37 .
BUGSAT 1 28 Mar 12:00:17 12:04:00 30° 264° (W) 12:07:39 437.445
VERMONT LUNAR 28 Mar 12:00:55 12:02:18 12° 212° (SSW) 12:03:36 437.305
DELFI C3 28 Mar 12:01:47 12:04:04 14° 295° (WNW) 12:06:10 145.870
NANOSAT C BR1 28 Mar 12:06:04 12:09:14 20° 267° (W) 12:12:19 145.865
TIGRISAT 28 Mar 12:06:37 12:08:07 11° 272° (W) 12:09:24 435.000
DX 1 28 Mar 12:07:36 12:11:13 26° 292° (WNW) 12:14:46 434.975-435.025
POLYITAN 1 28 Mar 12:09:21 12:12:21 18° 268° (W) 12:15:14 437.675
HUMSAT D 28 Mar 12:14:27 12:18:11 29° 290° (WNW) 12:21:52 437.325/437.525
AIST 2 28 Mar 12:21:02 12:25:09 46° 308° (NW) 12:29:20 435.215
PHONESAT 2.4 28 Mar 12:30:02 12:32:30 17° 209° (SSW) 12:34:54 2401.200-2431.200
FUNcube-1 28 Mar 12:39:42 12:40:28 10° 297° (WNW) 12:40:58 145.935
VELOX 1 28 Mar 12:42:30 12:46:12 26° 292° (WNW) 12:49:47 145.980
CUBEBUG 1 28 Mar 12:45:49 12:50:01 47° 287° (WNW) 12:54:09 437.445
AISAT 28 Mar 12:46:46 12:50:17 23° 293° (WNW) 12:53:41 437.250
TISAT 1 28 Mar 12:53:55 12:57:56 44° 99° (E) 13:01:57 437.305
BEESAT 2 28 Mar 12:58:07 12:59:28 11° 324° (NW) 13:00:40 435.950
SPROUT 28 Mar 12:59:35 13:03:51 62° 101° (E) 13:08:06 437.525
YUBILEINY 28 Mar 13:05:46 13:13:07 33° 85° (E) 13:20:43 435.215
SWISSCUBE 28 Mar 13:08:07 13:09:09 11° 87° (E) 13:10:30 437.505
Oscar 19 28 Mar 13:08:54 13:13:52 56° 73° (ENE) 13:18:54 437.125/150
BEESAT 28 Mar 13:11:22 13:12:20 11° 87° (E) 13:13:37 436.000
ESTCUBE 1 28 Mar 13:11:59 13:15:43 25° 292° (WNW) 13:19:21 437.505/2401.250
Gurwin Techsat 1B 28 Mar 13:16:06 13:19:36 19° 63° (ENE) 13:23:17 435.225
O/OREOS (USA 219) 28 Mar 13:40:03 13:44:05 30° 59° (ENE) 13:48:06 437.305
ITUPSAT 1 28 Mar 13:54:50 13:59:05 31° 96° (E) 14:03:19 437.325
AO-7 28 Mar 13:59:59 14:05:07 19° 51° (NE) 14:10:36 29.400- 29.500
ITAMSAT 1 28 Mar 14:11:32 14:16:43 71° 74° (ENE) 14:21:57 435.822/435.867
PCSat 28 Mar 14:28:09 14:32:42 29° 110° (ESE) 14:37:22 145.827
TISAT 1 28 Mar 14:30:43 14:33:27 16° 294° (WNW) 14:36:00 437.305
SPROUT 28 Mar 14:37:31 14:39:29 13° 296° (WNW) 14:41:15 437.525
SWISSCUBE 28 Mar 14:42:53 14:47:42 78° 286° (WNW) 14:52:28 437.505
BEESAT 28 Mar 14:46:04 14:50:53 79° 285° (WNW) 14:55:39 436.000
HORYU 2 28 Mar 14:47:29 14:51:11 27° 69° (ENE) 14:55:00 437.375
Oscar 19 28 Mar 14:50:12 14:53:40 17° 270° (W) 14:56:56 437.125/150
Gurwin Techsat 1B 28 Mar 14:53:54 14:59:09 61° 259° (W) 15:04:27 435.225
YUBILEINY 28 Mar 15:00:57 15:09:35 56° 284° (WNW) 15:18:13 435.215
JAS-2 28 Mar 15:06:51 15:12:41 30° 62° (ENE) 15:19:08 435.910
KKS-1 28 Mar 15:12:33 15:16:42 37° 98° (E) 15:20:50 437.445
O/OREOS (USA 219) 28 Mar 15:19:35 15:23:26 27° 256° (WSW) 15:27:10 437.305
AIST 1 28 Mar 15:20:35 15:24:46 47° 78° (ENE) 15:28:55
ITUPSAT 1 28 Mar 15:32:46 15:36:55 29° 292° (WNW) 15:40:58 437.325
STARS 28 Mar 15:47:01 15:51:22 57° 101° (E) 15:55:42 437.465
AO-7 28 Mar 15:48:30 15:56:47 79° 71° (ENE) 16:05:07 29.400- 29.500
ITAMSAT 1 28 Mar 15:54:03 15:56:52 14° 272° (W) 15:59:24 435.822/435.867
PCSat 28 Mar 16:10:52 16:15:59 41° 307° (NW) 16:21:07 145.827
HORYU 2 28 Mar 16:24:00 16:27:49 28° 265° (W) 16:31:37 437.375
MOZHAYETS 4 28 Mar 16:40:22 16:43:43 20° 91° (E) 16:47:11
KKS-1 28 Mar 16:49:45 16:53:08 21° 293° (WNW) 16:56:25 437.445
JAS-2 28 Mar 16:50:36 16:57:17 57° 262° (W) 17:04:43 435.910
AIST 1 28 Mar 16:59:45 17:02:03 14° 274° (W) 17:04:08
YUBILEINY 28 Mar 17:07:06 17:09:03 10° 309° (NW) 17:10:17 435.215
RS-15 28 Mar 17:15:25 17:17:35 11° 97° (E) 17:20:53 29.354- 29.394
STARS 28 Mar 17:24:57 17:27:25 15° 296° (WNW) 17:29:44 437.465
AO-7 28 Mar 17:44:18 17:50:33 22° 270° (W) 17:56:27 29.400- 29.500
AUBIESAT-1 28 Mar 17:59:28 18:04:02 40° 102° (ESE) 18:08:30 437.475
BEESAT 2 28 Mar 18:00:05 18:01:01 11° 35° (NE) 18:02:06 435.950
Cubesat XI-IV 28 Mar 18:04:13 18:09:31 66° 74° (ENE) 18:14:52 437.490
CUTE-I 28 Mar 18:04:19 18:09:37 65° 74° (ENE) 18:14:58 437.470
MOZHAYETS 4 28 Mar 18:16:47 18:21:10 41° 288° (WNW) 18:25:30
M-CUBED/EXP-1 PRIME 28 Mar 18:22:51 18:27:44 78° 106° (ESE) 18:32:32 437.505
CUBESAT XI-V 28 Mar 18:24:43 18:27:57 19° 91° (E) 18:31:19 437.345
BEESAT 3 28 Mar 18:36:38 18:39:56 23° 45° (NE) 18:43:14 437.485
HO-68 28 Mar 18:45:24 18:48:50 15° 53° (NE) 18:52:37 435.675
STRAND 1 28 Mar 18:48:52 18:52:20 19° 91° (E) 18:55:58 437.568
AIST 2 28 Mar 19:05:08 19:07:47 16° 40° (NE) 19:10:32 435.215
RS-15 28 Mar 19:17:21 19:27:57 63° 115° (ESE) 19:38:48 29.354- 29.394
GONETS M04 28 Mar 19:18:21 19:26:31 50° 90° (E) 19:34:53
CUTE 1.7 + AOD 2 28 Mar 19:28:20 19:29:12 11° 63° (ENE) 19:30:18 437.475
SO-50 28 Mar 19:29:52 19:34:29 82° 122° (ESE) 19:39:18 436.795
AUBIESAT-1 28 Mar 19:34:38 19:38:37 25° 298° (WNW) 19:42:27 437.475
BEESAT 2 28 Mar 19:35:51 19:40:00 70° 56° (NE) 19:44:05 435.950
PRISM 28 Mar 19:36:49 19:41:02 89° 118° (ESE) 19:45:11 437.425
BRITE-PL 28 Mar 19:37:59 19:41:54 27° 70° (ENE) 19:45:41 437.365/2234.400
Cubesat XI-IV 28 Mar 19:46:51 19:50:11 16° 271° (W) 19:53:17 437.490
CUTE-I 28 Mar 19:46:55 19:50:16 16° 271° (W) 19:53:23 437.470
AAUSAT CUBESAT 2 28 Mar 19:55:23 19:57:06 13° 64° (ENE) 19:59:01 437.432
SEEDS 28 Mar 19:56:46 19:59:36 18° 67° (ENE) 20:02:36 437.485
M-CUBED/EXP-1 PRIME 28 Mar 19:59:19 20:02:03 15° 303° (WNW) 20:04:36 437.505
CUBESAT XI-V 28 Mar 20:01:15 20:05:39 42° 288° (WNW) 20:09:59 437.345
CINEMA 3 28 Mar 20:10:22 20:12:02 12° 65° (ENE) 20:13:53 145.822/145.860
BEESAT 3 28 Mar 20:14:18 20:18:07 37° 244° (WSW) 20:21:52 437.485
Oscar 11 28 Mar 20:15:22 20:15:55 10° 62° (ENE) 20:16:43 145.826/435.025
COMPASS 1 28 Mar 20:19:51 20:23:19 26° 69° (ENE) 20:26:51 437.405
DOVE 4 28 Mar 20:22:07 20:25:58 32° 71° (ENE) 20:29:45 437.250
STRAND 1 28 Mar 20:26:56 20:31:54 51° 288° (WNW) 20:36:49 437.568
HO-68 28 Mar 20:28:22 20:35:28 71° 71° (ENE) 20:42:38 435.675
GOMX 1 28 Mar 20:28:39 20:33:05 58° 75° (ENE) 20:37:19 467.674
CUBEBUG 2 28 Mar 20:29:09 20:29:50 10° 63° (ENE) 20:30:45 437.445
AIST 2 28 Mar 20:42:39 20:46:54 68° 240° (WSW) 20:51:02 435.215
CANX-2 28 Mar 20:46:16 20:50:30 84° 78° (ENE) 20:54:47 2200.000
DANDE 28 Mar 20:58:10 21:00:45 23° 97° (E) 21:03:03 436.750
CUTE 1.7 + AOD 2 28 Mar 21:00:22 21:04:35 74° 258° (WSW) 21:08:51 437.475
SO-50 28 Mar 21:12:34 21:15:43 17° 322° (NW) 21:18:49 436.795
DELFI C3 28 Mar 21:13:22 21:16:57 31° 71° (ENE) 21:20:38 145.870
GONETS M04 28 Mar 21:15:46 21:23:41 36° 290° (WNW) 21:31:32
BRITE-PL 28 Mar 21:16:15 21:20:26 29° 264° (W) 21:24:18 437.365/2234.400
BEESAT 2 28 Mar 21:16:33 21:17:38 11° 251° (WSW) 21:18:29 435.950
UKube-1 28 Mar 21:18:41 21:21:51 21° 66° (ENE) 21:25:07 .
DX 1 28 Mar 21:27:15 21:30:52 26° 68° (ENE) 21:34:35 434.975-435.025
AAUSAT CUBESAT 2 28 Mar 21:28:11 21:32:18 60° 260° (W) 21:36:27 437.432
RS-15 28 Mar 21:30:41 21:40:57 43° 320° (NW) 21:51:23 29.354- 29.394
SEEDS 28 Mar 21:31:13 21:35:10 39° 263° (W) 21:39:09 437.485
HUMSAT D 28 Mar 21:31:59 21:34:39 17° 67° (ENE) 21:37:28 437.325/437.525
CINEMA 3 28 Mar 21:44:42 21:48:51 58° 260° (W) 21:52:59 145.822/145.860
Oscar 11 28 Mar 21:47:13 21:51:32 80° 258° (WSW) 21:55:53 145.826/435.025
COMPASS 1 28 Mar 21:55:26 21:58:59 26° 266° (W) 22:02:30 437.405
FUNcube-1 28 Mar 21:56:23 22:00:28 64° 75° (ENE) 22:04:36 145.935
CUSAT 1 28 Mar 21:56:45 21:59:08 23° 284° (WNW) 22:01:19 437.405
UWE-3 28 Mar 21:58:31 22:02:39 86° 78° (ENE) 22:06:50 435.000/436.395/437.385
DOVE 4 28 Mar 22:00:29 22:03:52 21° 267° (W) 22:07:03 437.250
CUBEBUG 2 28 Mar 22:01:55 22:06:04 71° 260° (W) 22:10:13 437.445
VELOX 1 28 Mar 22:03:53 22:07:37 28° 69° (ENE) 22:11:27 145.980
CUBEBUG 1 28 Mar 22:07:54 22:10:12 15° 64° (ENE) 22:12:41 437.445
AISAT 28 Mar 22:08:02 22:11:56 32° 70° (ENE) 22:15:53 437.250
ZACube-1 28 Mar 22:08:54 22:13:03 89° 251° (WSW) 22:17:14 437.345
GOMX 1 28 Mar 22:09:40 22:11:38 12° 270° (W) 22:13:21 467.674
UNISAT 6 28 Mar 22:10:22 22:11:00 10° 87° (E) 22:11:57 437.425
HO-68 28 Mar 22:18:33 22:23:55 21° 270° (W) 22:29:03 435.675
TIGRISAT 28 Mar 22:19:41 22:21:47 13° 89° (E) 22:24:08 435.000
50 SAT 28 Mar 22:26:07 22:29:50 44° 73° (ENE) 22:33:37 437.505
ESTCUBE 1 28 Mar 22:34:50 22:38:47 31° 69° (ENE) 22:42:49 437.505/2401.250
ANTELSAT 28 Mar 22:48:10 22:52:03 28° 95° (E) 22:56:04 437.575/2403.000
DELFI C3 28 Mar 22:49:09 22:52:14 20° 267° (W) 22:55:15 145.870
UKube-1 28 Mar 22:53:45 22:57:48 37° 262° (W) 23:01:49 .
QB50P1 28 Mar 22:56:24 22:58:57 16° 91° (E) 23:01:39 145.935-145.965
ISS 28 Mar 22:57:57 23:01:01 39° 138° (SE) 23:04:04 145.825
DUCHIFAT 1 28 Mar 22:58:40 23:01:16 16° 91° (E) 23:04:02 145.980
DX 1 28 Mar 23:03:17 23:07:05 28° 264° (W) 23:10:50 434.975-435.025
HUMSAT D 28 Mar 23:06:20 23:10:11 38° 262° (W) 23:14:03 437.325/437.525
QB50P2 28 Mar 23:10:19 23:13:41 23° 94° (E) 23:17:08 145.880/145.840
PCSat 28 Mar 23:15:22 23:19:55 27° 47° (NE) 23:24:31 145.827
YUBILEINY 28 Mar 23:16:08 23:20:49 16° 56° (ENE) 23:26:00 435.215
FUNcube-1 28 Mar 23:36:54 23:37:22 10° 273° (W) 23:37:35 145.935
POPSAT HIP 1 28 Mar 23:38:46 23:42:51 47° 99° (E) 23:46:57 437.405
VELOX 1 28 Mar 23:40:20 23:44:10 27° 265° (W) 23:47:57 145.980
CUBEBUG 1 28 Mar 23:41:49 23:46:10 57° 260° (W) 23:50:30 437.445
BUGSAT 1 28 Mar 23:42:09 23:45:51 35° 97° (E) 23:49:34 437.445
UNISAT 6 28 Mar 23:43:49 23:48:24 77° 284° (WNW) 23:53:02 437.425
AISAT 28 Mar 23:44:56 23:48:36 24° 266° (W) 23:52:10 437.250
TISAT 1 28 Mar 23:46:28 23:50:16 34° 71° (ENE) 23:54:06 437.305
RS-15 28 Mar 23:49:21 23:57:25 22° 353° (N) 00:05:37 29.354- 29.394
NANOSAT C BR1 28 Mar 23:49:37 23:53:49 63° 101° (E) 23:58:00 145.865
POLYITAN 1 28 Mar 23:53:09 23:57:24 71° 102° (ESE) 00:01:38 437.675
SPROUT 28 Mar 23:53:51 23:57:58 48° 73° (ENE) 00:02:08 437.525
TIGRISAT 28 Mar 23:54:29 23:58:59 61° 286° (WNW) 00:03:33 435.000
50 SAT 29 Mar 00:03:07 00:05:05 13° 270° (W) 00:06:53 437.505
ESTCUBE 1 29 Mar 00:11:51 00:15:41 26° 266° (W) 00:19:28 437.505/2401.250
SWISSCUBE 29 Mar 00:14:25 00:16:55 15° 63° (ENE) 00:19:38 437.505
BEESAT 29 Mar 00:17:34 00:20:01 14° 63° (ENE) 00:22:41 436.000
ANTELSAT 29 Mar 00:24:50 00:28:50 30° 290° (WNW) 00:32:50 437.575/2403.000
QB50P1 29 Mar 00:31:04 00:35:06 43° 288° (WNW) 00:39:06 145.935-145.965
DUCHIFAT 1 29 Mar 00:33:22 00:37:21 41° 288° (WNW) 00:41:19 145.980
ISS 29 Mar 00:34:33 00:37:28 29° 335° (NNW) 00:40:24 145.825
QB50P2 29 Mar 00:45:54 00:49:38 30° 290° (WNW) 00:53:18 145.880/145.840
PCSat 29 Mar 00:58:23 01:03:37 49° 247° (WSW) 01:08:47 145.827
ITUPSAT 1 29 Mar 01:01:47 01:06:10 37° 70° (ENE) 01:10:37 437.325
YUBILEINY 29 Mar 01:10:42 01:19:34 76° 81° (E) 01:28:21 435.215
POPSAT HIP 1 29 Mar 01:15:47 01:18:25 16° 294° (WNW) 01:20:53 437.405
BUGSAT 1 29 Mar 01:18:17 01:21:08 18° 293° (WNW) 01:23:53 437.445
Oscar 19 29 Mar 01:21:09 01:24:46 20° 91° (E) 01:28:33 437.125/150
TISAT 1 29 Mar 01:23:00 01:26:11 20° 267° (W) 01:29:17 437.305
NANOSAT C BR1 29 Mar 01:27:24 01:29:13 12° 296° (WNW) 01:30:51 145.865
POLYITAN 1 29 Mar 01:31:28 01:32:49 11° 297° (WNW) 01:33:58 437.675
SPROUT 29 Mar 01:31:54 01:34:24 15° 270° (W) 01:36:44 437.525
SWISSCUBE 29 Mar 01:49:31 01:54:18 67° 259° (WSW) 01:59:07 437.505
BEESAT 29 Mar 01:52:36 01:57:22 68° 258° (WSW) 02:02:11 436.000
RS-15 29 Mar 02:05:22 02:14:49 30° 27° (NNE) 02:24:49 29.354- 29.394
KKS-1 29 Mar 02:10:59 02:15:01 35° 70° (ENE) 02:19:04 437.445
ISS 29 Mar 02:12:48 02:14:39 14° 355° (N) 02:16:30 145.825
SO-50 29 Mar 02:22:03 02:24:45 15° 35° (NE) 02:27:36 436.795
ITAMSAT 1 29 Mar 02:24:56 02:29:05 25° 93° (E) 02:33:20 435.822/435.867
ITUPSAT 1 29 Mar 02:40:15 02:44:11 24° 266° (W) 02:48:02 437.325
STARS 29 Mar 02:44:06 02:48:20 51° 73° (ENE) 02:52:36 437.465
Oscar 19 29 Mar 02:59:28 03:04:28 51° 289° (WNW) 03:09:28 437.125/150
YUBILEINY 29 Mar 03:09:02 03:15:33 23° 279° (W) 03:21:41 435.215
Gurwin Techsat 1B 29 Mar 03:09:55 03:15:08 53° 99° (E) 03:20:20 435.225
M-CUBED/EXP-1 PRIME 29 Mar 03:40:23 03:41:35 11° 55° (NE) 03:42:59 437.505
MOZHAYETS 4 29 Mar 03:42:50 03:46:07 20° 66° (ENE) 03:49:33
KKS-1 29 Mar 03:48:18 03:51:46 21° 267° (W) 03:55:08 437.445
ISS 29 Mar 03:49:37 03:51:59 18° 15° (NNE) 03:54:22 145.825
AIST 1 29 Mar 03:50:27 03:54:13 29° 91° (E) 03:58:02
AO-7 29 Mar 03:50:54 03:57:16 25° 92° (E) 04:03:56 29.400- 29.500
O/OREOS (USA 219) 29 Mar 03:52:20 03:56:27 33° 105° (ESE) 04:00:36 437.305
JAS-2 29 Mar 04:00:52 04:07:05 27° 88° (E) 04:13:07 435.910
SO-50 29 Mar 04:01:14 04:06:12 76° 55° (NE) 04:11:07 436.795
ITAMSAT 1 29 Mar 04:03:55 04:08:46 40° 291° (WNW) 04:13:33 435.822/435.867
HORYU 2 29 Mar 04:14:22 04:18:47 54° 100° (E) 04:23:13 437.375
RS-15 29 Mar 04:17:56 04:29:28 78° 55° (NE) 04:41:32 29.354- 29.394
STARS 29 Mar 04:22:38 04:25:10 15° 270° (W) 04:27:31 437.465
VERMONT LUNAR 29 Mar 04:43:57 04:44:39 11° 147° (SSE) 04:45:27 437.305
AUBIESAT-1 29 Mar 04:47:52 04:51:44 48° 67° (ENE) 04:55:59 437.475
Gurwin Techsat 1B 29 Mar 04:50:49 04:54:46 21° 296° (WNW) 04:58:33 435.225
M-CUBED/EXP-1 PRIME 29 Mar 05:11:48 05:15:46 81° 251° (WSW) 05:20:10 437.505
MOZHAYETS 4 29 Mar 05:18:41 05:23:06 43° 263° (W) 05:27:31
ISS 29 Mar 05:25:35 05:28:50 75° 34° (NE) 05:32:03 145.825
AIST 1 29 Mar 05:28:16 05:31:54 24° 287° (WNW) 05:35:28
CUBESAT XI-V 29 Mar 05:28:30 05:31:53 21° 67° (ENE) 05:35:24 437.345
GONETS M04 29 Mar 05:28:38 05:35:27 25° 64° (ENE) 05:42:33
O/OREOS (USA 219) 29 Mar 05:32:03 05:35:56 26° 303° (WNW) 05:39:46 437.305
AO-7 29 Mar 05:42:36 05:50:52 71° 291° (WNW) 05:59:05 29.400- 29.500
SO-50 29 Mar 05:43:39 05:46:14 14° 251° (WSW) 05:48:32 436.795
JAS-2 29 Mar 05:45:01 05:52:44 63° 289° (WNW) 05:59:48 435.910
HORYU 2 29 Mar 05:52:16 05:55:04 16° 296° (WNW) 05:57:41 437.375
STRAND 1 29 Mar 06:04:39 06:08:58 29° 67° (ENE) 06:13:23 437.568
VERMONT LUNAR 29 Mar 06:18:42 06:21:50 39° 161° (SSE) 06:25:00 437.305
CUTE-I 29 Mar 06:21:56 06:26:15 25° 93° (E) 06:30:39 437.470
Cubesat XI-IV 29 Mar 06:21:59 06:26:20 26° 93° (E) 06:30:46 437.490
AUBIESAT-1 29 Mar 06:24:35 06:27:00 15° 267° (W) 06:29:21 437.475
PRISM 29 Mar 06:26:58 06:31:09 66° 74° (ENE) 06:35:21 437.425
